Time,TemperatureF,DewpointF,PressureIn,WindDirection,WindDirectionDegrees,WindSpeedMPH,WindSpeedGustMPH,Humidity,HourlyPrecipIn,Conditions,Clouds,dailyrainin,SoftwareType,DateUTC
2013-04-01 00:02:00,26.0,24.0,30.18,NNW,333,6.0,8.0,93,0.00,,,0.00,,2013-04-01 05:02:00,
2013-04-01 00:12:00,26.0,24.0,30.18,NNW,333,6.0,8.0,93,0.00,,,0.00,,2013-04-01 05:12:00,
2013-04-01 00:22:00,26.0,24.0,30.18,NNW,338,6.0,7.0,91,0.00,,,0.00,,2013-04-01 05:22:00,
2013-04-01 00:32:00,25.0,22.0,30.19,NNW,331,7.0,9.0,90,0.00,,,0.00,,2013-04-01 05:32:00,
2013-04-01 00:42:00,25.0,22.0,30.19,NNW,331,7.0,9.0,90,0.00,,,0.00,,2013-04-01 05:42:00,
2013-04-01 00:53:00,25.0,23.0,30.19,NNW,330,8.0,9.0,91,0.00,,,0.00,,2013-04-01 05:53:00,
2013-04-01 01:02:00,25.0,23.0,30.20,NNW,332,6.0,8.0,93,0.00,,,0.00,,2013-04-01 06:02:00,
2013-04-01 01:12:00,25.0,23.0,30.20,NNW,332,6.0,8.0,93,0.00,,,0.00,,2013-04-01 06:12:00,
2013-04-01 01:22:00,24.0,23.0,30.21,NNW,335,3.0,5.0,95,0.00,,,0.00,,2013-04-01 06:22:00,
2013-04-01 01:33:00,24.0,23.0,30.21,NNW,341,5.0,6.0,94,0.00,,,0.00,,2013-04-01 06:33:00,
2013-04-01 01:42:00,24.0,23.0,30.21,NNW,341,5.0,6.0,94,0.00,,,0.00,,2013-04-01 06:42:00,
2013-04-01 01:52:00,23.0,22.0,30.21,NNW,342,5.0,6.0,94,0.00,,,0.00,,2013-04-01 06:52:00,
2013-04-01 02:02:00,23.0,21.0,30.22,North,351,6.0,7.0,92,0.00,,,0.00,,2013-04-01 07:02:00,
2013-04-01 02:12:00,23.0,21.0,30.22,North,351,6.0,7.0,92,0.00,,,0.00,,2013-04-01 07:12:00,
2013-04-01 02:22:00,23.0,21.0,30.22,NNW,342,7.0,8.0,92,0.00,,,0.00,,2013-04-01 07:22:00,
2013-04-01 02:32:00,23.0,21.0,30.22,NNW,341,6.0,8.0,92,0.00,,,0.00,,2013-04-01 07:32:00,
2013-04-01 02:42:00,23.0,21.0,30.22,NNW,341,6.0,8.0,92,0.00,,,0.00,,2013-04-01 07:42:00,
2013-04-01 02:53:00,23.0,21.0,30.22,NNW,338,6.0,7.0,92,0.00,,,0.00,,2013-04-01 07:53:00,
2013-04-01 03:02:00,22.0,21.0,30.22,NNW,337,6.0,8.0,94,0.00,,,0.00,,2013-04-01 08:02:00,
2013-04-01 03:12:00,22.0,21.0,30.22,NNW,337,6.0,8.0,94,0.00,,,0.00,,2013-04-01 08:12:00,
2013-04-01 03:22:00,22.0,21.0,30.23,NNW,333,6.0,7.0,94,0.00,,,0.00,,2013-04-01 08:22:00,
2013-04-01 03:32:00,22.0,21.0,30.23,NW,323,2.0,3.0,95,0.00,,,0.00,,2013-04-01 08:32:00,
2013-04-01 03:43:00,22.0,21.0,30.23,NW,323,2.0,3.0,95,0.00,,,0.00,,2013-04-01 08:43:00,
2013-04-01 03:53:00,21.0,20.0,30.23,NW,325,0.0,0.0,96,0.00,,,0.00,,2013-04-01 08:53:00,
2013-04-01 04:02:00,21.0,20.0,30.23,NW,325,0.0,0.0,96,0.00,,,0.00,,2013-04-01 09:02:00,
2013-04-01 04:12:00,21.0,20.0,30.23,NW,325,0.0,0.0,96,0.00,,,0.00,,2013-04-01 09:12:00,
2013-04-01 04:22:00,21.0,20.0,30.23,NW,325,0.0,0.0,96,0.00,,,0.00,,2013-04-01 09:22:00,
2013-04-01 04:33:00,20.0,19.0,30.23,NW,315,3.0,6.0,95,0.00,,,0.00,,2013-04-01 09:33:00,
2013-04-01 04:42:00,20.0,19.0,30.23,NW,315,3.0,6.0,95,0.00,,,0.00,,2013-04-01 09:42:00,
2013-04-01 04:53:00,20.0,19.0,30.24,NW,320,3.0,5.0,96,0.00,,,0.00,,2013-04-01 09:53:00,
2013-04-01 05:03:00,19.0,18.0,30.24,West,264,2.0,3.0,97,0.00,,,0.00,,2013-04-01 10:03:00,
2013-04-01 05:12:00,19.0,18.0,30.24,West,264,2.0,3.0,97,0.00,,,0.00,,2013-04-01 10:12:00,
2013-04-01 05:23:00,18.0,18.0,30.25,WNW,287,5.0,6.0,99,0.00,,,0.00,,2013-04-01 10:23:00,
2013-04-01 05:33:00,18.0,18.0,30.25,WNW,285,0.0,0.0,99,0.00,,,0.00,,2013-04-01 10:33:00,
2013-04-01 05:42:00,18.0,18.0,30.25,WNW,285,0.0,0.0,99,0.00,,,0.00,,2013-04-01 10:42:00,
2013-04-01 05:53:00,17.0,17.0,30.26,WNW,290,5.0,6.0,99,0.00,,,0.00,,2013-04-01 10:53:00,
2013-04-01 06:03:00,17.0,17.0,30.26,NW,309,3.0,5.0,99,0.00,,,0.00,,2013-04-01 11:03:00,
2013-04-01 06:12:00,17.0,17.0,30.26,NW,309,3.0,5.0,99,0.00,,,0.00,,2013-04-01 11:12:00,
2013-04-01 06:23:00,17.0,17.0,30.27,West,275,3.0,5.0,99,0.00,,,0.00,,2013-04-01 11:23:00,
2013-04-01 06:32:00,16.0,16.0,30.28,WNW,297,2.0,5.0,99,0.00,,,0.00,,2013-04-01 11:32:00,
2013-04-01 06:42:00,16.0,16.0,30.28,WNW,297,2.0,5.0,99,0.00,,,0.00,,2013-04-01 11:42:00,
2013-04-01 06:53:00,16.0,16.0,30.29,WNW,298,3.0,5.0,99,0.00,,,0.00,,2013-04-01 11:53:00,
2013-04-01 07:02:00,16.0,16.0,30.29,NW,326,6.0,8.0,99,0.00,,,0.00,,2013-04-01 12:02:00,
2013-04-01 07:12:00,16.0,16.0,30.29,NW,326,6.0,8.0,99,0.00,,,0.00,,2013-04-01 12:12:00,
2013-04-01 07:22:00,16.0,16.0,30.29,NW,313,6.0,7.0,99,0.00,,,0.00,,2013-04-01 12:22:00,
2013-04-01 07:32:00,17.0,17.0,30.30,NW,310,5.0,7.0,99,0.00,,,0.00,,2013-04-01 12:32:00,
2013-04-01 07:42:00,17.0,17.0,30.30,NW,310,5.0,7.0,99,0.00,,,0.00,,2013-04-01 12:42:00,
2013-04-01 07:53:00,16.0,16.0,30.30,NW,317,5.0,5.0,99,0.00,,,0.00,,2013-04-01 12:53:00,
2013-04-01 08:02:00,17.0,17.0,30.31,NW,322,6.0,7.0,99,0.00,,,0.00,,2013-04-01 13:02:00,
2013-04-01 08:12:00,17.0,17.0,30.31,NW,322,6.0,7.0,99,0.00,,,0.00,,2013-04-01 13:12:00,
2013-04-01 08:22:00,17.0,17.0,30.32,NW,322,5.0,6.0,99,0.00,,,0.00,,2013-04-01 13:22:00,
2013-04-01 08:32:00,18.0,18.0,30.32,NNW,328,5.0,6.0,99,0.00,,,0.00,,2013-04-01 13:32:00,
2013-04-01 08:42:00,18.0,18.0,30.32,NNW,328,5.0,6.0,99,0.00,,,0.00,,2013-04-01 13:42:00,
2013-04-01 08:52:00,18.0,18.0,30.32,NNW,328,6.0,8.0,98,0.00,,,0.00,,2013-04-01 13:52:00,
2013-04-01 09:03:00,19.0,18.0,30.32,NW,324,6.0,9.0,96,0.00,,,0.00,,2013-04-01 14:03:00,
2013-04-01 09:12:00,19.0,18.0,30.32,NW,324,6.0,9.0,96,0.00,,,0.00,,2013-04-01 14:12:00,
2013-04-01 09:22:00,20.0,19.0,30.32,NNW,328,7.0,12.0,96,0.00,,,0.00,,2013-04-01 14:22:00,
2013-04-01 09:32:00,21.0,20.0,30.32,NW,321,8.0,10.0,94,0.00,,,0.00,,2013-04-01 14:32:00,
2013-04-01 09:42:00,21.0,20.0,30.32,NW,321,8.0,10.0,94,0.00,,,0.00,,2013-04-01 14:42:00,
2013-04-01 09:53:00,21.0,19.0,30.32,NW,322,8.0,13.0,92,0.00,,,0.00,,2013-04-01 14:53:00,
2013-04-01 10:02:00,22.0,19.0,30.33,NW,325,6.0,9.0,87,0.00,,,0.00,,2013-04-01 15:02:00,
2013-04-01 10:13:00,22.0,19.0,30.33,NW,325,6.0,9.0,87,0.00,,,0.00,,2013-04-01 15:13:00,
2013-04-01 10:22:00,23.0,19.0,30.33,NNW,327,6.0,10.0,84,0.00,,,0.00,,2013-04-01 15:22:00,
2013-04-01 10:33:00,23.0,18.0,30.34,NW,320,7.0,10.0,81,0.00,,,0.00,,2013-04-01 15:33:00,
2013-04-01 10:43:00,23.0,18.0,30.34,NW,320,7.0,10.0,81,0.00,,,0.00,,2013-04-01 15:43:00,
2013-04-01 10:53:00,23.0,17.0,30.34,NW,317,9.0,12.0,79,0.00,,,0.00,,2013-04-01 15:53:00,
2013-04-01 11:02:00,24.0,18.0,30.34,NNW,337,8.0,12.0,78,0.00,,,0.00,,2013-04-01 16:02:00,
2013-04-01 11:13:00,24.0,18.0,30.34,NNW,337,8.0,12.0,78,0.00,,,0.00,,2013-04-01 16:13:00,
2013-04-01 11:23:00,24.0,18.0,30.35,NNW,337,6.0,8.0,77,0.00,,,0.00,,2013-04-01 16:23:00,
2013-04-01 11:33:00,25.0,19.0,30.35,NNW,339,8.0,10.0,77,0.00,,,0.00,,2013-04-01 16:33:00,
2013-04-01 11:42:00,25.0,19.0,30.35,NNW,339,8.0,10.0,77,0.00,,,0.00,,2013-04-01 16:42:00,
2013-04-01 11:53:00,25.0,19.0,30.35,NNW,344,8.0,10.0,76,0.00,,,0.00,,2013-04-01 16:53:00,
2013-04-01 12:03:00,25.0,18.0,30.35,North,353,8.0,9.0,73,0.00,,,0.00,,2013-04-01 17:03:00,
2013-04-01 12:12:00,25.0,18.0,30.35,North,353,8.0,9.0,73,0.00,,,0.00,,2013-04-01 17:12:00,
2013-04-01 12:22:00,26.0,19.0,30.35,NNW,339,8.0,9.0,73,0.00,,,0.00,,2013-04-01 17:22:00,
2013-04-01 12:32:00,26.0,19.0,30.35,NNW,339,8.0,9.0,73,0.00,,,0.00,,2013-04-01 17:32:00,
2013-04-01 12:42:00,26.0,19.0,30.35,NNW,339,8.0,9.0,73,0.00,,,0.00,,2013-04-01 17:42:00,
2013-04-01 12:52:00,27.0,20.0,30.35,NNW,345,8.0,10.0,73,0.00,,,0.00,,2013-04-01 17:52:00,
2013-04-01 13:02:00,29.0,22.0,30.34,NNW,338,5.0,7.0,74,0.00,,,0.00,,2013-04-01 18:02:00,
2013-04-01 13:12:00,29.0,22.0,30.34,NNW,338,5.0,7.0,74,0.00,,,0.00,,2013-04-01 18:12:00,
2013-04-01 13:22:00,29.0,20.0,30.34,NW,312,7.0,8.0,70,0.00,,,0.00,,2013-04-01 18:22:00,
2013-04-01 13:32:00,30.0,22.0,30.33,WNW,302,6.0,12.0,73,0.00,,,0.00,,2013-04-01 18:32:00,
2013-04-01 13:42:00,30.0,22.0,30.33,WNW,302,6.0,12.0,73,0.00,,,0.00,,2013-04-01 18:42:00,
2013-04-01 13:53:00,30.0,21.0,30.32,NNW,335,6.0,8.0,68,0.00,,,0.00,,2013-04-01 18:53:00,
2013-04-01 14:03:00,31.0,21.0,30.32,NW,321,8.0,9.0,65,0.00,,,0.00,,2013-04-01 19:03:00,
2013-04-01 14:12:00,31.0,21.0,30.32,NW,321,8.0,9.0,65,0.00,,,0.00,,2013-04-01 19:12:00,
2013-04-01 14:23:00,31.0,21.0,30.32,NW,308,7.0,13.0,65,0.00,,,0.00,,2013-04-01 19:23:00,
2013-04-01 14:32:00,32.0,21.0,30.31,NW,319,8.0,9.0,64,0.00,,,0.00,,2013-04-01 19:32:00,
2013-04-01 14:42:00,32.0,21.0,30.31,NW,319,8.0,9.0,64,0.00,,,0.00,,2013-04-01 19:42:00,
2013-04-01 14:53:00,33.0,22.0,30.32,NW,308,6.0,7.0,63,0.00,,,0.00,,2013-04-01 19:53:00,
2013-04-01 15:02:00,34.0,22.0,30.31,NW,318,7.0,13.0,61,0.00,,,0.00,,2013-04-01 20:02:00,
2013-04-01 15:12:00,34.0,22.0,30.31,NW,318,7.0,13.0,61,0.00,,,0.00,,2013-04-01 20:12:00,
2013-04-01 15:22:00,34.0,23.0,30.30,North,8,5.0,9.0,63,0.00,,,0.00,,2013-04-01 20:22:00,
2013-04-01 15:32:00,34.0,22.0,30.29,NW,318,9.0,12.0,62,0.00,,,0.00,,2013-04-01 20:32:00,
2013-04-01 15:42:00,34.0,22.0,30.29,NW,318,9.0,12.0,62,0.00,,,0.00,,2013-04-01 20:42:00,
2013-04-01 15:52:00,35.0,23.0,30.29,NNW,327,5.0,9.0,61,0.00,,,0.00,,2013-04-01 20:52:00,
2013-04-01 16:02:00,35.0,22.0,30.29,NNW,347,7.0,10.0,58,0.00,,,0.00,,2013-04-01 21:02:00,
2013-04-01 16:12:00,35.0,22.0,30.29,NNW,347,7.0,10.0,58,0.00,,,0.00,,2013-04-01 21:12:00,
2013-04-01 16:22:00,35.0,22.0,30.28,NNW,337,8.0,12.0,58,0.00,,,0.00,,2013-04-01 21:22:00,
2013-04-01 16:32:00,36.0,22.0,30.28,WNW,297,6.0,7.0,56,0.00,,,0.00,,2013-04-01 21:32:00,
2013-04-01 16:43:00,36.0,22.0,30.28,WNW,297,6.0,7.0,56,0.00,,,0.00,,2013-04-01 21:43:00,
2013-04-01 16:53:00,36.0,23.0,30.27,NW,326,6.0,7.0,58,0.00,,,0.00,,2013-04-01 21:53:00,
2013-04-01 17:02:00,36.0,21.0,30.27,NNW,340,9.0,10.0,54,0.00,,,0.00,,2013-04-01 22:02:00,
2013-04-01 17:12:00,36.0,21.0,30.27,NNW,340,9.0,10.0,54,0.00,,,0.00,,2013-04-01 22:12:00,
2013-04-01 17:22:00,36.0,21.0,30.26,NNW,342,8.0,12.0,54,0.00,,,0.00,,2013-04-01 22:22:00,
2013-04-01 17:33:00,37.0,20.0,30.26,NW,325,7.0,10.0,50,0.00,,,0.00,,2013-04-01 22:33:00,
2013-04-01 17:43:00,37.0,20.0,30.26,NW,325,7.0,10.0,50,0.00,,,0.00,,2013-04-01 22:43:00,
2013-04-01 17:52:00,37.0,21.0,30.26,NW,326,5.0,5.0,52,0.00,,,0.00,,2013-04-01 22:52:00,
2013-04-01 18:02:00,37.0,21.0,30.26,NNW,346,7.0,10.0,52,0.00,,,0.00,,2013-04-01 23:02:00,
2013-04-01 18:12:00,37.0,21.0,30.26,NNW,346,7.0,10.0,52,0.00,,,0.00,,2013-04-01 23:12:00,
2013-04-01 18:22:00,37.0,21.0,30.25,NNW,336,7.0,9.0,51,0.00,,,0.00,,2013-04-01 23:22:00,
2013-04-01 18:32:00,37.0,21.0,30.25,NNW,338,6.0,7.0,51,0.00,,,0.00,,2013-04-01 23:32:00,
2013-04-01 18:42:00,37.0,21.0,30.25,NNW,338,6.0,7.0,51,0.00,,,0.00,,2013-04-01 23:42:00,
2013-04-01 18:53:00,38.0,22.0,30.25,NW,312,5.0,7.0,51,0.00,,,0.00,,2013-04-01 23:53:00,
2013-04-01 19:02:00,38.0,21.0,30.25,NW,325,3.0,7.0,50,0.00,,,0.00,,2013-04-02 00:02:00,
2013-04-01 19:12:00,38.0,21.0,30.25,NW,325,3.0,7.0,50,0.00,,,0.00,,2013-04-02 00:12:00,
2013-04-01 19:22:00,37.0,19.0,30.25,NNW,345,6.0,7.0,48,0.00,,,0.00,,2013-04-02 00:22:00,
2013-04-01 19:32:00,37.0,19.0,30.25,NNW,332,6.0,7.0,48,0.00,,,0.00,,2013-04-02 00:32:00,
2013-04-01 19:42:00,37.0,19.0,30.25,NNW,332,6.0,7.0,48,0.00,,,0.00,,2013-04-02 00:42:00,
2013-04-01 19:53:00,37.0,20.0,30.24,NNW,330,3.0,5.0,50,0.00,,,0.00,,2013-04-02 00:53:00,
2013-04-01 20:02:00,36.0,19.0,30.25,NNW,332,2.0,3.0,50,0.00,,,0.00,,2013-04-02 01:02:00,
2013-04-01 20:12:00,36.0,19.0,30.25,NNW,332,2.0,3.0,50,0.00,,,0.00,,2013-04-02 01:12:00,
2013-04-01 20:22:00,36.0,21.0,30.25,NW,311,0.0,0.0,53,0.00,,,0.00,,2013-04-02 01:22:00,
2013-04-01 20:32:00,35.0,20.0,30.25,NW,311,0.0,0.0,55,0.00,,,0.00,,2013-04-02 01:32:00,
2013-04-01 20:42:00,35.0,20.0,30.25,NW,311,0.0,0.0,55,0.00,,,0.00,,2013-04-02 01:42:00,
2013-04-01 20:52:00,35.0,21.0,30.25,NW,311,0.0,0.0,56,0.00,,,0.00,,2013-04-02 01:52:00,
2013-04-01 21:02:00,34.0,20.0,30.26,NW,311,0.0,0.0,57,0.00,,,0.00,,2013-04-02 02:02:00,
2013-04-01 21:12:00,34.0,20.0,30.26,NW,311,0.0,0.0,57,0.00,,,0.00,,2013-04-02 02:12:00,
2013-04-01 21:22:00,33.0,20.0,30.26,NW,311,0.0,0.0,59,0.00,,,0.00,,2013-04-02 02:22:00,
2013-04-01 21:32:00,32.0,21.0,30.26,NW,311,0.0,0.0,63,0.00,,,0.00,,2013-04-02 02:32:00,
2013-04-01 21:42:00,32.0,21.0,30.26,NW,311,0.0,0.0,63,0.00,,,0.00,,2013-04-02 02:42:00,
2013-04-01 21:53:00,31.0,21.0,30.27,NW,311,0.0,0.0,65,0.00,,,0.00,,2013-04-02 02:53:00,
2013-04-01 22:02:00,30.0,21.0,30.27,NW,311,0.0,0.0,68,0.00,,,0.00,,2013-04-02 03:02:00,
2013-04-01 22:12:00,30.0,21.0,30.27,NW,311,0.0,0.0,68,0.00,,,0.00,,2013-04-02 03:12:00,
2013-04-01 22:22:00,30.0,21.0,30.28,NW,311,0.0,0.0,68,0.00,,,0.00,,2013-04-02 03:22:00,
2013-04-01 22:33:00,29.0,21.0,30.28,NW,311,0.0,0.0,73,0.00,,,0.00,,2013-04-02 03:33:00,
2013-04-01 22:43:00,29.0,21.0,30.28,NW,311,0.0,0.0,73,0.00,,,0.00,,2013-04-02 03:43:00,
2013-04-01 22:53:00,29.0,21.0,30.28,NW,311,0.0,0.0,73,0.00,,,0.00,,2013-04-02 03:53:00,
2013-04-01 23:03:00,30.0,21.0,30.29,NW,311,0.0,0.0,69,0.00,,,0.00,,2013-04-02 04:03:00,
2013-04-01 23:13:00,30.0,21.0,30.29,NW,311,0.0,0.0,69,0.00,,,0.00,,2013-04-02 04:13:00,
2013-04-01 23:22:00,30.0,21.0,30.28,NW,311,0.0,0.0,70,0.00,,,0.00,,2013-04-02 04:22:00,
2013-04-01 23:32:00,29.0,21.0,30.29,WNW,287,0.0,0.0,72,0.00,,,0.00,,2013-04-02 04:32:00,
2013-04-01 23:42:00,29.0,21.0,30.29,WNW,287,0.0,0.0,72,0.00,,,0.00,,2013-04-02 04:42:00,
2013-04-01 23:53:00,28.0,21.0,30.28,WNW,287,0.0,0.0,75,0.00,,,0.00,,2013-04-02 04:53:00,